Retour au catalogue

GEESAT 2-11

ActifScienceLEO
NORAD 58915·PAYLOAD·🇨🇳 China

Lancé Feb 2, 2024 depuis Xichang Satellite Launch Center

Loading…

Prochains Passages (prochaines 24 heures)

TLE

FraisSource: Space-Track

Époque: Sep 14, 2026, 21:30 UTC

1 58915U 24023L   26257.89601803  .00001102  00000-0  16016-3 0  9997
2 58915  50.0003 298.4522 0018211  97.1807 263.1202 14.83418726142237

Suivez GEESAT 2-11 en temps réel avec AllMySat

Download on the App Store